National Weather Service United States Department of Commerce

Elevated Fire Danger Today

Gusty winds, low humidity, and mild temperatures leading to elevated fire danger today... Read More >

Observations from across/near northern Michigan

Marine Observations

Michigan Hourly Observations

 

Yesterday's high, low and precipitation reports from across northern Michigan

Northern Michigan Temperatures and Precipitation

 

Observation Text Products


000
SXUS83 KAPX 151638
OMRAPX

Marine Observations
National Weather Service Gaylord MI
1238 PM EDT Tue Jun 15 2021

WIND DATA (KTS) WAVES WATER
SITE DATE/TIME DIR SPEED GUST (FT) TEMP(F) SITE NAME
-------------------------------------------------------------

Lake Superior/St Marys River

GRMM4 151540Z 324 9 10 Grand Marais
PTIM4 151618Z 276 1 3 Point Iroquois
CYAM 151600Z 290 11 SOO (Canada)
KANJ 151630Z 340 13 19 Sault Ste Marie
SWPM4 151618Z 345 11 16 S.W. Pier
LTRM4 151618Z 327 11 15 Little Rapids
RCKM4 151618Z 318 9 14 Rock Cut
WNEM4 151612Z 349 9 11 West Nebish Island

Lake Huron

DTLM4 151618Z 327 10 16 DeTour Village
KDRM 151615Z 350 6 Drummond Island
KMCD 151615Z 20 6 Mackinac Island
MACM4 151618Z 191 2 3 Mackinac City
KSLH 151615Z 330 5 Cheboygan Airport
CYGM4 151550Z CALM Cheboygan Marina
KPZQ 151615Z 320 7 Rogers City
PRIM4 151450Z 310 8 13 Presque Isle Light
KAPN 151630Z 350 14 Alpena Guard Base
SPTM4 151450Z 360 12 24 Sturgeon Point Light
KOSC 151615Z 50 11 Oscoda
GSLM4 151540Z 21 20 22 Gravelly Shoals

Lake Michigan

KISQ 151615Z 350 12 17 Manistique
PNLM4 151618Z 281 15 18 Port Inland
NABM4 151540Z 348 8 11 Naubinway
KSJX 151615Z 330 5 St James
KPLN 151625Z 330 6 Pellston
KMGN 151615Z 330 5 Harbor Springs
KCVX 151615Z 340 8 Charlevoix
NMIM4 151528Z 346 2 6 North Manitou Island
GTLM4 151620Z 16 5 7 Grand Traverse Light
KTVC 151630Z 350 8 Traverse City
KFKS 151615Z 340 7 Frankfort
MEEM4 151540Z 2 7 10 Manistee Harbor
BSBM4 151540Z 357 7 12 Big Sable Point
LDTM4 151612Z 350 9 12 Ludington
KLDM 151615Z 350 10 16 Ludington Airport


509
ASUS43 KDTX 151701
RWRMI
MICHIGAN HOURLY REGIONAL WEATHER ROUNDUP
NATIONAL WEATHER SERVICE DETROIT/PONTIAC MI
100 PM EDT TUE JUN 15 2021

NOTE: "FAIR" INDICATES FEW OR NO CLOUDS BELOW 12,000 FEET WITH NO
SIGNIFICANT WEATHER AND/OR OBSTRUCTION TO VISIBILITY.

MIZ047>049-052>055-059>063-066>070-074>076-081>083-151800-
SOUTHEAST LOWER MICHIGAN

CITY SKY/WX TMP DP RH WIND PRES REMARKS
ADRIAN PTSUNNY 73 54 51 NW14G23 30.04F
ALMA SUNNY 70 46 41 N10G18 30.08S
ANN ARBOR MOSUNNY 73 54 51 N15G23 30.03S
BAD AXE SUNNY 65 33 30 N13G25 30.06S
CARO SUNNY 72 39 31 N12G20 30.05S
DETROIT CITY MOSUNNY 75 50 41 N12G18 30.01F
DETROIT MOSUNNY 74 51 44 N14G22 30.01F
FLINT SUNNY 71 47 42 N14G26 30.04S
GROSSE ILE MOSUNNY 73 47 39 NE6 30.00F
HILLSDALE PTSUNNY 72 53 51 N12G18 30.05S
HOWELL PTSUNNY 71 47 42 NW13 30.05S

CITY SKY/WX TMP DP RH WIND PRES REMARKS
JACKSON MOSUNNY 73 47 39 NW13G22 30.05S
LAMBERTVILLE SUNNY 76 50 40 N9G20 30.01S
LANSING SUNNY 74 44 34 N13G18 30.07S
LAPEER SUNNY 70 43 38 N13G21 30.05R
MASON MOSUNNY 72 50 45 N12G22 30.06S
MONROE MOSUNNY 74 52 46 NW10G20 30.00F
MT. CLEMENS MOSUNNY 72 50 44 N17 30.00S
PONTIAC MOSUNNY 71 47 42 N10G24 30.01S
PORT HOPE N/A 72 50 45 CALM 30.06S
PORT HURON SUNNY 66 45 45 NE13 30.03R
TRI CITIES MOSUNNY 71 46 40 N15G22 30.06F
MIDLAND SUNNY 72 47 40 NW13G22 30.06F
TROY SUNNY 72 49 45 N10G25 30.04S
SAGINAW HB SUNNY 69 52 54 NE10G16 30.06S
$$
MIZ043>046-050>051-056>058-064>065-071>073-077>080-151800-
SOUTHWEST LOWER MICHIGAN

CITY SKY/WX TMP DP RH WIND PRES REMARKS
BATTLE CREEK MOSUNNY 76 55 48 N13 30.06F
BENTON HARBOR SUNNY 68 54 60 N8 30.10S
BIG RAPIDS SUNNY 69 42 38 N6G17 30.09S
COLDWATER SUNNY 73 55 51 N12 30.06S
FREMONT FAIR 74 47 37 N3 30.08S
HOLLAND SUNNY 75 54 47 VRB7 30.08F
GRAND RAPIDS MOSUNNY 75 50 41 N14G24 30.07F
KALAMAZOO PTSUNNY 76 52 43 N12G20 30.06F
LUDINGTON SUNNY 72 51 47 N17G23 30.10S
MARSHALL PTSUNNY 73 52 46 N5 30.06S
MOUNT PLEASANT SUNNY 71 44 37 N6 30.07F
MUSKEGON MOSUNNY 76 55 48 W12 30.08F
SOUTH HAVEN SUNNY 67 56 67 NW10 30.10S
$$
MIZ016>042-151800-
NORTHERN LOWER MICHIGAN

CITY SKY/WX TMP DP RH WIND PRES REMARKS
ALPENA MOSUNNY 70 39 32 N14G24 30.09S
BEAVER ISLAND SUNNY 71 41 33 NW3 30.13S
BELLAIRE MOSUNNY 71 42 34 N10 30.10F
CADILLAC SUNNY 72 40 31 N12G22 30.09S
CHARLEVOIX SUNNY 66 51 59 N7 30.13S
FRANKFORT SUNNY 69 47 45 N9G16 30.13S
GAYLORD SUNNY 68 35 29 NE15G25 30.10F
GRAYLING SUNNY 70 41 35 NE13 30.09S
HARBOR SPRINGS SUNNY 71 39 31 NW6G16 30.11S
HOUGHTON LAKE SUNNY 70 40 33 NW13G22 30.09S
MANISTEE SUNNY 70 52 52 NW15G22 30.11S
OSCODA SUNNY 68 38 33 NE10G18 30.06F
PELLSTON SUNNY 71 43 36 N8 30.11S
ROGERS CITY MOSUNNY 64 44 46 N9 30.11S
TRAVERSE CITY MOSUNNY 72 40 31 N10G21 30.10S
$$
MIZ007>008-015-151800-
EASTERN UPPER MICHIGAN

CITY SKY/WX TMP DP RH WIND PRES REMARKS
KINROSS MOSUNNY 67 39 35 N17G23 30.12R
MACKINAC ISLAN SUNNY 70 39 32 N13 30.10S
NEWBERRY SUNNY 69 40 34 N9 30.13S
S. S. MARIE MOSUNNY 70 43 37 NW8G25 30.11S
MUNISING N/A 57 47 69 NW13 30.18S
$$
MIZ004>006-011>014-085-151800-
CENTRAL UPPER MICHIGAN

CITY SKY/WX TMP DP RH WIND PRES REMARKS
MANISTIQUE SUNNY 74 43 33 N14G21 30.12S
ESCANABA SUNNY 72 43 35 N14 30.14F
MENOMINEE SUNNY 69 42 37 E8 30.16F
SAWYER-GWINN SUNNY 64 41 42 N13G20 30.19R
$$
MIZ001>003-009>011-084-151800-
WESTERN UPPER MICHIGAN

CITY SKY/WX TMP DP RH WIND PRES REMARKS
IRON MOUNTAIN MOSUNNY 72 43 35 NW10 30.16F
HOUGHTON SUNNY 70 41 34 N10 30.21S
COPPER HARBOR N/A 55 47 74 N5 30.22F
IRONWOOD SUNNY 68 46 45 N12 30.24R
$$

ABBREVIATIONS USED IN REMARKS
TC - TEMPERATURE IN CELSIUS
WCI - WIND CHILL INDEX
HX - HEAT INDEX
VSB - VISIBILITY





000
ASUS63 KAPX 151441
RTPAPX


Eastern Upper/Northern Lower Michigan Temperature and Precip Summary
National Weather Service Gaylord MI
1041 AM EDT Tue Jun 15 2021

Yesterday`s High Temperature...12 hour Low ending 8 am EDT
24 hour Precipitation/Snowfall ending 8 am EDT
Snow Depth observed at 8 am EDT

.BR APX 0615 ES DH00/TAIRZX/DH07/TAIRZP/PPDRZZ/SFDRZZ/SDIRZZ
:..................................................................
: MAX MIN 24 HR 24 HR SNOW
:ID LOCATION TEMP TEMP PRECIP SNOW DEPTH
:..................................................................
ANJ : Sault Ste Marie : 72 / 50 / 0.00 / 0.0 / 0
APN : Alpena : 78 / 52 / 0.00 / 0.0 / 0
HTL : Houghton Lake : 75 / 51 / 0.00 / 0.0 / 0
PLN : Pellston : 77 / 47 / 0.00 / /
TVC : Traverse City : 75 / 59 / 0.00 / /
GLR : Gaylord : 74 / 54 / 0.00 / /
.END

Cooperative Observations
Temperature/Precipitation/Snowfall values are for 24 hour period
ending at observation time. Snow Depth at obs time.

...................................................................
OBS MAX MIN SNOW SNOW
ID LOCATION TIME TEMP TEMP PCPN FALL DEPTH
...................................................................
ATLM4: Atlanta 1SW :DH0700/ 74 / 51 / 0.03 / 0.0 / 0.0
BEUM4: Beulah 7SSW :DH0800/ 73 / 55 / 0.00 / M / M
CHRM4: Charlevoix :DH0800/ 68 / 56 / 0.00 / 0.0 / 0.0
DTVM4: Detour Village :DH0800/ 74 / 54 / 0.00 / 0.0 / 0.0
EJDM4: East Jordan :DH0800/ 74 / 50 / M / M / M
ETWM4: East Tawas :DH0800/ 73 / 54 / 0.00 / M / M
ENGM4: Engadine MDOT :DH0700/ 76 / 47 / 0.00 / 0.0 / 0.0
FLAM4: Fife Lake 2WSW :DH0700/ 73 / 49 / 0.00 / 0.0 / 0.0
GLAM4: Gladwin :DH0700/ 76 / 55 / 0.20 / 0.0 / 0.0
GLNM4: Glennie 2SE :DH0730/ 80 / 53 / 0.00 / 0.0 / 0.0
LKCM4: Lake City 2SE :DH0800/ 75 / 51 / 0.00 / 0.0 / 0.0
MYOM4: Mio :DH0830/ 75 / 50 / 0.02 / 0.0 / 0.0
OMSM4: Old Mission 3SSW :DH0730/ 72 / 55 / 0.00 / M / M
PETM4: Petoskey :DH0800/ 64 / 54 / 0.00 / 0.0 / M
SSMM4: Sault Ste Marie :DH0800/ 69 / 44 / 0.00 / M / M
STIM4: St Ignace :DH0700/ 73 / 49 / 0.00 / 0.0 / 0.0
TCEM4: Traverse City 4.7ESE :DH0700/ M / M / 0.00 / 0.0 / 0.0
TCMM4: Traverse City Munson :DH0600/ 73 / 55 / 0.00 / 0.0 / 0.0
WBRM4: West Branch 3SE :DH0800/ 74 / 53 / T / 0.0 / 0.0

These data are preliminary and have not undergone final quality
control by the National Centers for Environmental Information.
Therefore...these data are subject to revision. Final
and certified climate data can be accessed at www.ncdc.noaa.gov.

&&

The following are supplemental temperature and precipitation data.
This includes data which are received from non-National Weather
Service maintained observing systems...as well as reports from
public weather spotters. Data is only partially quality controlled
and is not suitable for official climatological records.

.BR APX 0615 ES DH00/TAIRZX/DH07/TAIRZP
:
:Automated Temperature Data--Yesterday High/12 hr Low ending 8 am EDT
:..................................................................
: MAX MIN
:ID LOCATION TEMP TEMP
:..................................................................
:
ERY : Newberry : 71 / 48
CIU : Kinross : 71 / 49
MCD : Mackinac Island : 72 / 51
DRM : Drummond Island : 72 / 55
SJX : Beaver Island : 72 / 51
SLH : Cheboygan : 75 / 50
PZQ : Rogers City : 73 / 54
CVX : Charlevoix : 71 / 56
MGN : Harbor Springs : 67 / 52
ACB : Bellaire : 72 / 49
FKS : Frankfort : 72 / 57
MBL : Manistee : 74 / 51
CAD : Cadillac : 74 / 50
Y31 : West Branch : 73 / 53
OSC : Oscoda : 72 / 54
LDM : Ludington : 73 / 53
RQB : Big Rapids : 72 / 54
MOP : Mount Pleasant : 74 / 57
IKW : Midland : 74 / 52
.END

U.S. Forest Service Remote Automated Weather Stations (RAWS)
Data is only partially quality controlled
Yesterday`s High/12 hour Low Temperature ending 8 am EDT
Maximum Relative Humidity over past 12 hours
12/24 hour Precipitation ending 8 am EDT
...................................................................
MAX MIN MAX 12 HR 24 HR
ID LOCATION TEMP TEMP RH PRECIP PRECIP
...................................................................
AGRM4: Alger RAWS : 77 / 50 / 99 / 0.00 / 0.00
ATAM4: Atlanta RAWS : 76 / 41 / 98 / 0.00 / 0.00
BCYM4: Barton City RAWS : 77 / 52 / 93 / 0.00 / 0.00
GYGM4: Grayling RAWS : 75 / 49 / 99 / 0.00 / 0.01
INDM4: Indian River RAWS : 79 / 44 / 99 / 0.00 / 0.38
MMOM4: Mio RAWS : 75 / 49 / 97 / 0.00 / 0.01
NMIM4: N Manitou Island : 72 / 54 / 87 / 0.00 / 0.00
RACM4: Raco RAWS : 70 / 47 / 100 / 0.00 / 0.00
REXM4: Rexton RAWS : 70 / 48 / 94 / 0.00 / 0.00
RSCM4: Roscommon RAWS : 74 / 49 / M / 0.02 / 0.15
RYDM4: Rudyard RAWS : 73 / 45 / 100 / 0.00 / 0.00
SBDM4: The Bear RAWS : 71 / 52 / 100 / 0.00 / 0.00
SCKM4: Silver Creek RAWS : 73 / 50 / 100 / 0.00 / 0.00
WLLM4: Wellston RAWS : 77 / 51 / 99 / 0.00 / 0.00

The following are precipitation reports received by the National
Weather Service in Gaylord...valid for the time period ending
around 8 am EDT. All reports have been recorded in inches.

Spotter reports from Eastern Upper and Northern Lower Michigan:

WATER TIME SNOW
LOCATION RAIN SNOW EQUIV PERIOD DEPTH

Luzerne 2NE 0.02 24 HRS


CoCoRaHS Precipitation Reports
Values are for the previous 24 hours ending around 8 am EDT.
All reports have been recorded in inches.

SNOW SNOW WATER
STATION LOCATION PCPN FALL DEPTH EQUIV

MICF09 : GRAYLING 15.8 NE * : 0.05 / 0.0 / 0.0 / MM
MIOD03 : LUZERNE 2.4 NE * : 0.03 / MM / MM / MM
MICP14 : SAULT STE. MARIE 2.2 E * : T / 0.0 / 0.0 / MM
MIIC03 : EAST TAWAS 0.8 WSW * : T / 0.0 / 0.0 / 0.00
MIOT04 : GAYLORD 1.7 WNW * : T / 0.0 / 0.0 / MM
MIOT16 : GAYLORD 2.2 SSE * : T / 0.0 / 0.0 / 0.00
MICX04 : CHARLEVOIX 4.3 SSE * : T / MM / MM / MM
MICX07 : EAST JORDAN 2.1 NNW * : 0.00 / 0.0 / 0.0 / 0.00
MIGT25 : TRAVERSE CITY 4.7 ESE * : 0.00 / 0.0 / 0.0 / MM
MIMC04 : ST. IGNACE 0.5SE * : 0.00 / 0.0 / 0.0 / MM
MIOT17 : GAYLORD 4.1 S * : 0.00 / 0.0 / 0.0 / MM
MIAP02 : OSSINEKE 1.0 NNE * : 0.00 / 0.0 / MM / MM
MICB07 : MACKINAW CITY 1.1 ENE * : 0.00 / 0.0 / MM / MM
MIEM05 : HARBOR SPRINGS 0.7 ENE * : 0.00 / 0.0 / MM / MM
MIEM08 : PETOSKEY 1.7 SSW * : 0.00 / 0.0 / MM / MM
MIEM15 : LEVERING 6.3 WNW * : 0.00 / 0.0 / MM / MM
MIGT21 : KINGSLEY 2.7 ENE * : 0.00 / 0.0 / MM / MM
MIGT27 : TRAVERSE CITY 4.7 W * : 0.00 / 0.0 / MM / MM
MILL01 : NORTHPORT 5.0 SSW * : 0.00 / 0.0 / MM / MM
MIMC03 : CEDARVILLE 3.2 ESE * : 0.00 / 0.0 / MM / MM
MIMN06 : WELLSTON 3.9 WNW * : 0.00 / 0.0 / MM / MM
MIOG06 : WEST BRANCH 2.1 SSW * : 0.00 / 0.0 / MM / MM
MIPI01 : ROGERS CITY 0.2 WSW * : 0.00 / 0.0 / MM / MM

$$